QTR678 OTHH-FSIA

Flight info

Callsign QTR678
Flight time N/A
Altitude 28000
Route DATRI L564 BAT/N0494F370 DCT KUTNA DCT MIGMA DCT GOBRO L425 DEDSO/N0492F380 R401 SUHIL UM314 IMTIP DCT EPNOR T144 ROUTY ROUTY1D
Aircraft A359/H-SDE2E3GHIJ3J4J5LM1ORWXY/LB1D1

Departure

Time 2026-05-08 06:18
Airport Hamad International Airport (OTHH)

Arrival

Time N/A
Airport Seychelles International Airport (FSIA)
Time Latitude Longitude Altitude Speed Heading
2026-05-08 05:59 25.26169 51.61658 35 ft 0 kts 338°
2026-05-08 06:08 25.26164 51.61661 36 ft 1 kts 338°
2026-05-08 06:08 25.26158 51.61663 36 ft 0 kts 338°
2026-05-08 06:09 25.26151 51.61666 35 ft 2 kts 338°
2026-05-08 06:09 25.26135 51.61674 33 ft 3 kts 343°
2026-05-08 06:09 25.26119 51.61676 33 ft 3 kts 18°
2026-05-08 06:10 25.26102 51.61667 32 ft 3 kts 55°
2026-05-08 06:10 25.26100 51.61662 32 ft 0 kts 63°
2026-05-08 06:10 25.26102 51.61668 36 ft 3 kts 62°
2026-05-08 06:11 25.26126 51.61712 36 ft 10 kts 61°
2026-05-08 06:11 25.26154 51.61798 36 ft 14 kts 69°
2026-05-08 06:11 25.26188 51.61925 36 ft 20 kts 78°
2026-05-08 06:11 25.26195 51.62065 36 ft 18 kts 130°
2026-05-08 06:12 25.26086 51.62130 36 ft 18 kts 158°
2026-05-08 06:12 25.25966 51.62181 36 ft 19 kts 159°
2026-05-08 06:12 25.25843 51.62236 36 ft 19 kts 157°
2026-05-08 06:12 25.25719 51.62294 36 ft 20 kts 156°
2026-05-08 06:13 25.25634 51.62331 36 ft 20 kts 159°
2026-05-08 06:13 25.25505 51.62388 36 ft 18 kts 149°
2026-05-08 06:13 25.25483 51.62452 35 ft 7 kts 77°
2026-05-08 06:13 25.25500 51.62509 35 ft 9 kts 70°
2026-05-08 06:14 25.25529 51.62575 33 ft 11 kts 56°
2026-05-08 06:14 25.25589 51.62627 33 ft 11 kts 22°
2026-05-08 06:14 25.25663 51.62624 33 ft 8 kts 342°
2026-05-08 06:14 25.25679 51.62618 33 ft 15 kts 341°
2026-05-08 06:15 25.25711 51.62603 32 ft 28 kts 335°
2026-05-08 06:15 25.25746 51.62588 32 ft 36 kts 339°
2026-05-08 06:15 25.25808 51.62561 32 ft 46 kts 337°
2026-05-08 06:15 25.26009 51.62465 33 ft 57 kts 336°
2026-05-08 06:16 25.26305 51.62384 34 ft 32 kts 338°
2026-05-08 06:16 25.26340 51.62362 33 ft 0 kts 328°
2026-05-08 06:17 25.27067 51.62011 30 ft 127 kts 338°
2026-05-08 06:17 25.28082 51.61557 82 ft 184 kts 339°
2026-05-08 06:17 25.29332 51.60975 167 ft 207 kts 337°
2026-05-08 06:18 25.30709 51.60317 468 ft 216 kts 337°
2026-05-08 06:18 25.32033 51.59679 1272 ft 195 kts 339°
2026-05-08 06:18 25.33196 51.59107 1993 ft 180 kts 340°
2026-05-08 06:18 25.34380 51.58524 2254 ft 193 kts 340°
2026-05-08 06:19 25.35663 51.57903 2502 ft 209 kts 340°
2026-05-08 06:19 25.37046 51.57242 2701 ft 224 kts 341°
2026-05-08 06:19 25.38526 51.56542 2919 ft 238 kts 341°
2026-05-08 06:19 25.40067 51.55799 3285 ft 246 kts 337°
2026-05-08 06:20 25.41507 51.54715 3654 ft 257 kts 320°
2026-05-08 06:20 25.42556 51.53068 4070 ft 271 kts 295°
2026-05-08 06:20 25.42830 51.50979 4573 ft 284 kts 266°
2026-05-08 06:20 25.42110 51.48966 5059 ft 291 kts 233°
2026-05-08 06:21 25.40537 51.47629 5700 ft 285 kts 202°
2026-05-08 06:21 25.38637 51.47104 6353 ft 279 kts 188°
2026-05-08 06:21 25.36712 51.46946 6875 ft 279 kts 181°
2026-05-08 06:21 25.34762 51.46958 7279 ft 282 kts 179°
2026-05-08 06:22 25.32805 51.47189 7720 ft 284 kts 167°
2026-05-08 06:22 25.30913 51.47842 8204 ft 286 kts 160°
2026-05-08 06:22 25.29062 51.48659 8674 ft 287 kts 157°
2026-05-08 06:22 25.27240 51.49569 9160 ft 287 kts 155°
2026-05-08 06:23 25.25445 51.50521 9726 ft 286 kts 154°
2026-05-08 06:23 25.23655 51.51491 10093 ft 291 kts 154°
2026-05-08 06:23 25.21800 51.52495 10285 ft 303 kts 154°
2026-05-08 06:23 25.19872 51.53526 10482 ft 314 kts 154°
2026-05-08 06:24 25.17870 51.54586 10659 ft 324 kts 154°
2026-05-08 06:24 25.15801 51.55673 10862 ft 334 kts 155°
2026-05-08 06:24 25.13670 51.56787 11044 ft 344 kts 155°
2026-05-08 06:24 25.11478 51.57932 11209 ft 353 kts 155°
2026-05-08 06:25 25.09225 51.59108 11324 ft 363 kts 155°
2026-05-08 06:25 25.06926 51.60306 11657 ft 367 kts 155°
2026-05-08 06:25 25.04605 51.61516 12037 ft 369 kts 155°
2026-05-08 06:25 25.02291 51.62721 12599 ft 366 kts 155°
2026-05-08 06:26 24.99987 51.63925 13004 ft 368 kts 155°
2026-05-08 06:26 24.97667 51.65136 13359 ft 371 kts 155°
2026-05-08 06:26 24.95310 51.66364 13517 ft 378 kts 155°
2026-05-08 06:26 24.92928 51.67603 13866 ft 378 kts 155°
2026-05-08 06:27 24.90549 51.68841 14226 ft 379 kts 155°
2026-05-08 06:27 24.88167 51.70080 14610 ft 378 kts 155°
2026-05-08 06:27 24.85783 51.71320 14921 ft 381 kts 155°
2026-05-08 06:27 24.83388 51.72566 15299 ft 380 kts 155°
2026-05-08 06:28 24.80992 51.73811 15657 ft 381 kts 155°
2026-05-08 06:28 24.78587 51.75061 15922 ft 385 kts 155°
2026-05-08 06:28 24.76157 51.76323 16207 ft 387 kts 155°
2026-05-08 06:28 24.73719 51.77588 16589 ft 388 kts 155°
2026-05-08 06:29 24.71303 51.78840 16888 ft 390 kts 155°
2026-05-08 06:29 24.68814 51.80131 17216 ft 391 kts 155°
2026-05-08 06:29 24.66383 51.81392 17551 ft 392 kts 155°
2026-05-08 06:29 24.63912 51.82672 17893 ft 393 kts 155°
2026-05-08 06:30 24.61436 51.83955 18206 ft 394 kts 155°
2026-05-08 06:30 24.58948 51.85242 18462 ft 396 kts 155°
2026-05-08 06:30 24.56446 51.86537 18711 ft 398 kts 155°
2026-05-08 06:30 24.53933 51.87837 18957 ft 400 kts 156°
2026-05-08 06:31 24.51405 51.89143 19199 ft 402 kts 156°
2026-05-08 06:31 24.48867 51.90455 19427 ft 404 kts 156°
2026-05-08 06:31 24.46317 51.91772 19672 ft 406 kts 156°
2026-05-08 06:31 24.43755 51.93095 19917 ft 408 kts 156°
2026-05-08 06:32 24.41179 51.94425 20145 ft 410 kts 156°
2026-05-08 06:32 24.38596 51.95757 20379 ft 412 kts 156°
2026-05-08 06:32 24.35997 51.97097 20618 ft 414 kts 156°
2026-05-08 06:32 24.33387 51.98442 20842 ft 415 kts 156°
2026-05-08 06:33 24.30765 51.99793 21064 ft 417 kts 156°
2026-05-08 06:33 24.28134 52.01147 21268 ft 419 kts 156°
2026-05-08 06:33 24.25486 52.02509 21475 ft 421 kts 156°
2026-05-08 06:33 24.22827 52.03878 21694 ft 423 kts 156°
2026-05-08 06:34 24.20154 52.05252 21905 ft 425 kts 156°
2026-05-08 06:34 24.17474 52.06629 22095 ft 427 kts 156°
2026-05-08 06:34 24.14779 52.08014 22300 ft 429 kts 157°
2026-05-08 06:34 24.12070 52.09405 22502 ft 431 kts 157°
2026-05-08 06:35 24.09352 52.10800 22696 ft 432 kts 157°
2026-05-08 06:35 24.06626 52.12198 22881 ft 434 kts 157°
2026-05-08 06:35 24.03883 52.13604 23084 ft 436 kts 157°
2026-05-08 06:35 24.01171 52.14994 23267 ft 438 kts 157°
2026-05-08 06:36 23.98410 52.16408 23456 ft 439 kts 157°
2026-05-08 06:36 23.95602 52.17847 23630 ft 440 kts 157°
2026-05-08 06:36 23.92859 52.19250 23801 ft 442 kts 157°
2026-05-08 06:36 23.90073 52.20676 23968 ft 443 kts 157°
2026-05-08 06:37 23.87283 52.22103 24125 ft 444 kts 157°
2026-05-08 06:37 23.84482 52.23534 24303 ft 445 kts 157°
2026-05-08 06:37 23.81676 52.24967 24458 ft 446 kts 157°
2026-05-08 06:37 23.78864 52.26403 24636 ft 447 kts 157°
2026-05-08 06:38 23.76045 52.27842 24786 ft 448 kts 157°
2026-05-08 06:38 23.73216 52.29284 24946 ft 449 kts 157°
2026-05-08 06:38 23.70381 52.30730 25105 ft 450 kts 157°
2026-05-08 06:38 23.67540 52.32178 25256 ft 451 kts 157°
2026-05-08 06:39 23.64693 52.33628 25398 ft 452 kts 157°
2026-05-08 06:39 23.61836 52.35082 25556 ft 454 kts 157°
2026-05-08 06:39 23.58973 52.36539 25704 ft 455 kts 157°
2026-05-08 06:39 23.56102 52.37999 25859 ft 456 kts 157°
2026-05-08 06:40 23.53225 52.39462 26016 ft 457 kts 157°
2026-05-08 06:40 23.50343 52.40926 26167 ft 458 kts 157°
2026-05-08 06:40 23.47451 52.42394 26330 ft 459 kts 158°
2026-05-08 06:40 23.44555 52.43864 26474 ft 460 kts 158°
2026-05-08 06:41 23.41647 52.45340 26610 ft 461 kts 158°
2026-05-08 06:41 23.38738 52.46815 26760 ft 462 kts 158°
2026-05-08 06:41 23.35818 52.48295 26914 ft 463 kts 158°
2026-05-08 06:41 23.32896 52.49775 27064 ft 464 kts 158°
2026-05-08 06:42 23.29963 52.51260 27203 ft 465 kts 158°
2026-05-08 06:42 23.27024 52.52748 27344 ft 467 kts 158°
2026-05-08 06:42 23.24075 52.54240 27484 ft 468 kts 158°
2026-05-08 06:42 23.21123 52.55732 27632 ft 469 kts 158°
2026-05-08 06:43 23.18160 52.57230 27777 ft 470 kts 158°
2026-05-08 06:43 23.15210 52.58721 27870 ft 463 kts 158°
2026-05-08 06:43 23.12315 52.60185 27880 ft 456 kts 158°
2026-05-08 06:43 23.09452 52.61632 27881 ft 453 kts 158°
2026-05-08 06:44 23.06595 52.63073 27881 ft 453 kts 158°
2026-05-08 06:44 23.03738 52.64512 27881 ft 453 kts 158°
2026-05-08 06:44 23.00882 52.65950 27881 ft 453 kts 158°
2026-05-08 06:44 22.98062 52.67369 27873 ft 453 kts 158°
2026-05-08 06:45 22.95206 52.68806 27877 ft 453 kts 158°
2026-05-08 06:45 22.92351 52.70243 27878 ft 452 kts 158°
2026-05-08 06:45 22.89494 52.71680 27878 ft 452 kts 158°
2026-05-08 06:45 22.86639 52.73115 27879 ft 452 kts 158°
2026-05-08 06:46 22.83782 52.74551 27878 ft 452 kts 158°
2026-05-08 06:46 22.80928 52.75984 27878 ft 452 kts 158°
2026-05-08 06:46 22.78073 52.77418 27877 ft 452 kts 158°
2026-05-08 06:46 22.75217 52.78851 27876 ft 453 kts 158°
2026-05-08 06:47 22.72358 52.80285 27878 ft 453 kts 158°
2026-05-08 06:47 22.69500 52.81718 27881 ft 453 kts 158°
2026-05-08 06:47 22.66644 52.83149 27881 ft 453 kts 158°
2026-05-08 06:47 22.63787 52.84580 27881 ft 452 kts 158°
2026-05-08 06:48 22.60929 52.86011 27881 ft 452 kts 158°
2026-05-08 06:48 22.58072 52.87440 27878 ft 452 kts 158°
2026-05-08 06:48 22.55212 52.88863 27877 ft 452 kts 159°
2026-05-08 06:48 22.52277 52.90042 27874 ft 450 kts 165°
2026-05-08 06:49 22.49283 52.91029 27878 ft 449 kts 166°
2026-05-08 06:49 22.46274 52.91937 27879 ft 449 kts 167°
2026-05-08 06:49 22.43257 52.92801 27878 ft 449 kts 168°
2026-05-08 06:49 22.40234 52.93649 27881 ft 449 kts 168°
2026-05-08 06:50 22.37213 52.94494 27881 ft 449 kts 168°
2026-05-08 06:50 22.34194 52.95342 27881 ft 449 kts 168°
2026-05-08 06:50 22.31171 52.96196 27881 ft 449 kts 168°
2026-05-08 06:50 22.28155 52.97052 27878 ft 449 kts 167°
2026-05-08 06:51 22.25132 52.97913 27880 ft 449 kts 167°
2026-05-08 06:51 22.22116 52.98773 27881 ft 449 kts 167°
2026-05-08 06:51 22.19098 52.99635 27881 ft 449 kts 167°
2026-05-08 06:51 22.16078 53.00496 27881 ft 449 kts 167°
2026-05-08 06:52 22.13060 53.01357 27881 ft 449 kts 167°
2026-05-08 06:52 22.10039 53.02217 27884 ft 449 kts 167°
2026-05-08 06:52 22.07014 53.03078 27883 ft 449 kts 167°
2026-05-08 06:52 22.03991 53.03938 27883 ft 449 kts 167°
2026-05-08 06:53 22.00970 53.04798 27883 ft 449 kts 167°
2026-05-08 06:53 21.97946 53.05657 27884 ft 449 kts 167°
2026-05-08 06:53 21.94921 53.06517 27881 ft 449 kts 167°
2026-05-08 06:53 21.91898 53.07376 27884 ft 449 kts 167°
2026-05-08 06:54 21.88872 53.08235 27884 ft 449 kts 167°
2026-05-08 06:54 21.85890 53.09081 27883 ft 449 kts 167°
2026-05-08 06:54 21.82867 53.09938 27884 ft 449 kts 167°
2026-05-08 06:54 21.79843 53.10795 27885 ft 449 kts 167°
2026-05-08 06:55 21.76816 53.11653 27885 ft 449 kts 167°
2026-05-08 06:55 21.73795 53.12509 27883 ft 449 kts 167°
2026-05-08 06:55 21.70771 53.13366 27884 ft 449 kts 167°
2026-05-08 06:55 21.67750 53.14221 27885 ft 449 kts 167°
2026-05-08 06:56 21.64728 53.15075 27887 ft 449 kts 167°
2026-05-08 06:56 21.61706 53.15929 27886 ft 449 kts 167°
2026-05-08 06:56 21.58684 53.16783 27886 ft 449 kts 167°
2026-05-08 06:56 21.55661 53.17638 27887 ft 449 kts 167°
2026-05-08 06:57 21.52640 53.18491 27883 ft 449 kts 167°
2026-05-08 06:57 21.49617 53.19344 27884 ft 449 kts 167°
2026-05-08 06:57 21.47799 53.19857 27884 ft 450 kts 167°
2026-05-08 06:57 21.47452 53.19955 27883 ft 450 kts 167°
2026-05-08 06:58 21.44427 53.20808 27885 ft 450 kts 167°
2026-05-08 06:58 21.41402 53.21661 27884 ft 449 kts 167°
2026-05-08 06:58 21.38377 53.22514 27884 ft 449 kts 167°
2026-05-08 06:58 21.35354 53.23366 27883 ft 449 kts 167°
2026-05-08 06:59 21.32329 53.24218 27884 ft 449 kts 167°
2026-05-08 06:59 21.29305 53.25069 27879 ft 450 kts 167°
2026-05-08 06:59 21.26276 53.25921 27883 ft 450 kts 167°
2026-05-08 06:59 21.23241 53.26775 27884 ft 451 kts 167°
2026-05-08 07:00 21.20206 53.27628 27899 ft 451 kts 167°
2026-05-08 07:00 21.17171 53.28481 27883 ft 451 kts 167°
2026-05-08 07:00 21.15644 53.28910 27885 ft 451 kts 167°
2026-05-08 07:00 21.14923 53.29113 27883 ft 451 kts 167°
2026-05-08 07:01 21.11888 53.29965 27884 ft 451 kts 167°
2026-05-08 07:01 21.09876 53.30530 27884 ft 451 kts 167°
2026-05-08 07:01 21.06843 53.31381 27884 ft 451 kts 167°
2026-05-08 07:01 21.03808 53.32232 27894 ft 451 kts 166°
2026-05-08 07:02 21.00772 53.33083 27878 ft 451 kts 167°
2026-05-08 07:02 20.97738 53.33933 27891 ft 451 kts 167°
2026-05-08 07:02 20.94858 53.34740 27884 ft 451 kts 167°
2026-05-08 07:03 20.92574 53.35380 27881 ft 451 kts 167°
2026-05-08 07:03 20.89542 53.36228 27892 ft 451 kts 166°
2026-05-08 07:03 20.86505 53.37077 27882 ft 451 kts 166°
2026-05-08 07:03 20.83470 53.37926 27894 ft 451 kts 166°
2026-05-08 07:04 20.80475 53.38764 27883 ft 451 kts 167°
2026-05-08 07:04 20.79513 53.39033 27898 ft 451 kts 167°
2026-05-08 07:05 20.78333 53.39363 27882 ft 451 kts 167°
2026-05-08 07:05 20.76902 53.39763 27892 ft 451 kts 166°
2026-05-08 07:05 20.73868 53.40610 27882 ft 451 kts 167°
2026-05-08 07:06 20.70796 53.41467 27899 ft 451 kts 166°
2026-05-08 07:06 20.67801 53.42303 27881 ft 451 kts 166°
2026-05-08 07:06 20.64766 53.43149 27894 ft 451 kts 166°
2026-05-08 07:06 20.62821 53.43692 27898 ft 451 kts 166°
2026-05-08 07:07 20.62241 53.43854 27897 ft 451 kts 166°
2026-05-08 07:07 20.59207 53.44700 27882 ft 451 kts 166°
2026-05-08 07:07 20.56171 53.45546 27887 ft 451 kts 167°
2026-05-08 07:07 20.53135 53.46391 27881 ft 451 kts 166°
2026-05-08 07:08 20.50103 53.47236 27898 ft 450 kts 166°
2026-05-08 07:08 20.47072 53.48079 27882 ft 450 kts 166°
2026-05-08 07:08 20.44039 53.48923 27903 ft 450 kts 166°
2026-05-08 07:08 20.41006 53.49766 27893 ft 451 kts 166°
2026-05-08 07:09 20.37973 53.50609 27883 ft 450 kts 166°
2026-05-08 07:09 20.34940 53.51453 27898 ft 450 kts 166°
2026-05-08 07:09 20.31913 53.52293 27882 ft 450 kts 166°
2026-05-08 07:09 20.28883 53.53134 27896 ft 450 kts 166°
2026-05-08 07:10 20.25855 53.53975 27893 ft 450 kts 166°
2026-05-08 07:10 20.22824 53.54815 27880 ft 450 kts 166°
2026-05-08 07:10 20.19793 53.55655 27895 ft 450 kts 166°
2026-05-08 07:10 20.16765 53.56494 27891 ft 450 kts 166°
2026-05-08 07:11 20.13732 53.57335 27880 ft 450 kts 166°
2026-05-08 07:11 20.10697 53.58175 27880 ft 450 kts 166°
2026-05-08 07:11 20.07669 53.59014 27894 ft 450 kts 166°
2026-05-08 07:11 20.04639 53.59852 27888 ft 450 kts 166°
2026-05-08 07:12 20.01611 53.60690 27894 ft 450 kts 166°
2026-05-08 07:12 19.98579 53.61528 27879 ft 450 kts 166°
2026-05-08 07:12 19.95544 53.62367 27888 ft 450 kts 166°
2026-05-08 07:12 19.92512 53.63205 27894 ft 451 kts 166°
2026-05-08 07:13 19.89477 53.64043 27893 ft 451 kts 166°
2026-05-08 07:13 19.86444 53.64881 27895 ft 451 kts 166°
2026-05-08 07:13 19.83412 53.65718 27875 ft 450 kts 166°
2026-05-08 07:13 19.80423 53.66543 27885 ft 449 kts 166°
2026-05-08 07:14 19.77397 53.67377 27890 ft 450 kts 166°
2026-05-08 07:14 19.74367 53.68212 27875 ft 450 kts 166°
2026-05-08 07:14 19.71332 53.69048 27888 ft 450 kts 166°
2026-05-08 07:14 19.68302 53.69882 27882 ft 450 kts 166°
2026-05-08 07:15 19.65269 53.70718 27881 ft 450 kts 166°
2026-05-08 07:15 19.62244 53.71550 27884 ft 449 kts 166°
2026-05-08 07:15 19.59218 53.72383 27872 ft 449 kts 166°
2026-05-08 07:15 19.56195 53.73214 27882 ft 449 kts 166°
2026-05-08 07:16 19.53166 53.74047 27869 ft 450 kts 166°
2026-05-08 07:16 19.50138 53.74878 27881 ft 450 kts 166°
2026-05-08 07:16 19.47105 53.75711 27877 ft 450 kts 166°
2026-05-08 07:16 19.44074 53.76544 27882 ft 450 kts 166°
2026-05-08 07:17 19.41046 53.77375 27877 ft 449 kts 166°
2026-05-08 07:17 19.38022 53.78204 27876 ft 449 kts 166°
2026-05-08 07:17 19.34992 53.79035 27877 ft 450 kts 166°
2026-05-08 07:17 19.31956 53.79867 27878 ft 451 kts 166°
2026-05-08 07:18 19.28920 53.80700 27877 ft 450 kts 166°
2026-05-08 07:18 19.25892 53.81529 27880 ft 450 kts 166°
2026-05-08 07:18 19.22859 53.82359 27882 ft 451 kts 166°
2026-05-08 07:18 19.19822 53.83190 27875 ft 451 kts 166°
2026-05-08 07:19 19.16791 53.84020 27876 ft 449 kts 166°
2026-05-08 07:19 19.13768 53.84846 27877 ft 449 kts 166°
2026-05-08 07:19 19.10736 53.85676 27880 ft 451 kts 166°
2026-05-08 07:19 19.07700 53.86506 27869 ft 450 kts 166°
2026-05-08 07:20 19.04670 53.87333 27877 ft 449 kts 166°
2026-05-08 07:20 19.01647 53.88159 27869 ft 449 kts 166°
2026-05-08 07:20 18.98620 53.88986 27873 ft 449 kts 166°
2026-05-08 07:20 18.95598 53.89811 27874 ft 449 kts 166°
2026-05-08 07:21 18.92575 53.90635 27871 ft 449 kts 166°
2026-05-08 07:21 18.89587 53.91449 27875 ft 450 kts 166°
2026-05-08 07:21 18.86552 53.92276 27869 ft 451 kts 166°
2026-05-08 07:21 18.83512 53.93105 27876 ft 451 kts 166°
2026-05-08 07:22 18.80478 53.93932 27871 ft 450 kts 166°
2026-05-08 07:22 18.77444 53.94758 27867 ft 450 kts 166°
2026-05-08 07:22 18.74412 53.95583 27865 ft 451 kts 166°
2026-05-08 07:22 18.71371 53.96410 27861 ft 452 kts 166°
2026-05-08 07:23 18.68323 53.97239 27870 ft 453 kts 166°
2026-05-08 07:23 18.65273 53.98069 27863 ft 453 kts 166°
2026-05-08 07:23 18.62226 53.98897 27862 ft 452 kts 166°
2026-05-08 07:23 18.59182 53.99724 27868 ft 452 kts 166°
2026-05-08 07:24 18.56144 54.00549 27856 ft 451 kts 166°
2026-05-08 07:24 18.53104 54.01374 27864 ft 452 kts 166°
2026-05-08 07:24 18.50057 54.02201 27859 ft 452 kts 166°
2026-05-08 07:24 18.47012 54.03028 27863 ft 452 kts 166°
2026-05-08 07:25 18.43966 54.03854 27866 ft 452 kts 166°
2026-05-08 07:25 18.40923 54.04678 27858 ft 452 kts 166°
2026-05-08 07:25 18.34829 54.06329 27855 ft 452 kts 166°
2026-05-08 07:26 18.31785 54.07153 27862 ft 452 kts 166°
2026-05-08 07:26 18.28737 54.07978 27860 ft 453 kts 166°
2026-05-08 07:26 18.25687 54.08804 27853 ft 453 kts 166°
2026-05-08 07:26 18.22640 54.09628 27856 ft 452 kts 166°
2026-05-08 07:27 18.19592 54.10452 27860 ft 452 kts 166°
2026-05-08 07:27 18.16543 54.11277 27857 ft 452 kts 166°
2026-05-08 07:27 18.13493 54.12100 27861 ft 453 kts 166°
2026-05-08 07:27 18.10442 54.12924 27856 ft 453 kts 166°
2026-05-08 07:28 18.07384 54.13750 27855 ft 454 kts 166°
2026-05-08 07:28 18.04332 54.14574 27860 ft 453 kts 166°
2026-05-08 07:28 18.01281 54.15398 27863 ft 452 kts 166°
2026-05-08 07:28 17.98235 54.16219 27864 ft 452 kts 166°
2026-05-08 07:29 17.95188 54.17040 27860 ft 453 kts 166°
2026-05-08 07:29 17.92134 54.17863 27860 ft 453 kts 166°
2026-05-08 07:29 17.89080 54.18686 27863 ft 453 kts 166°
2026-05-08 07:29 17.86072 54.19497 27867 ft 452 kts 166°
2026-05-08 07:30 17.82984 54.20328 27861 ft 452 kts 166°
2026-05-08 07:30 17.79978 54.21137 27867 ft 452 kts 166°
2026-05-08 07:30 17.76886 54.21969 27865 ft 453 kts 166°
2026-05-08 07:30 17.73876 54.22778 27870 ft 453 kts 166°
2026-05-08 07:31 17.70820 54.23600 27871 ft 453 kts 166°
2026-05-08 07:31 17.67725 54.24432 27869 ft 453 kts 166°
2026-05-08 07:31 17.64672 54.25252 27874 ft 454 kts 166°
2026-05-08 07:31 17.61611 54.26074 27874 ft 454 kts 166°
2026-05-08 07:32 17.58587 54.26886 27876 ft 455 kts 166°
2026-05-08 07:32 17.55524 54.27708 27874 ft 454 kts 166°
2026-05-08 07:32 17.52461 54.28530 27888 ft 455 kts 166°
2026-05-08 07:32 17.49400 54.29351 27909 ft 454 kts 166°
2026-05-08 07:33 17.46323 54.30176 27994 ft 459 kts 166°
2026-05-08 07:33 17.43207 54.31011 28153 ft 466 kts 166°
2026-05-08 07:33 17.40051 54.31856 28421 ft 469 kts 166°
2026-05-08 07:33 17.36883 54.32705 28743 ft 472 kts 166°
2026-05-08 07:34 17.33694 54.33559 29032 ft 475 kts 166°
2026-05-08 07:34 17.30470 54.34422 29195 ft 481 kts 166°
2026-05-08 07:34 17.27209 54.35294 29367 ft 487 kts 166°
2026-05-08 07:34 17.23911 54.36175 29513 ft 492 kts 166°
2026-05-08 07:35 17.20578 54.37066 29694 ft 497 kts 166°
2026-05-08 07:35 17.17221 54.37963 29982 ft 498 kts 166°
2026-05-08 07:35 17.13863 54.38861 30292 ft 498 kts 166°
2026-05-08 07:35 17.10508 54.39757 30660 ft 497 kts 166°
2026-05-08 07:36 17.07167 54.40649 31075 ft 494 kts 166°
2026-05-08 07:36 17.03848 54.41536 31524 ft 491 kts 166°
2026-05-08 07:36 17.00547 54.42417 31836 ft 490 kts 166°
2026-05-08 07:37 16.93870 54.44195 31903 ft 501 kts 167°
2026-05-08 07:37 16.87029 54.46016 31900 ft 513 kts 166°
2026-05-08 07:38 16.80059 54.47871 31898 ft 520 kts 166°
2026-05-08 07:38 16.73020 54.49745 31889 ft 523 kts 166°
2026-05-08 07:39 16.65963 54.51621 31887 ft 524 kts 166°
2026-05-08 07:39 16.58897 54.53498 31886 ft 523 kts 166°
2026-05-08 07:40 16.51850 54.55368 31889 ft 523 kts 166°
2026-05-08 07:40 16.44811 54.57235 31894 ft 521 kts 166°
2026-05-08 07:41 16.37777 54.59098 31894 ft 522 kts 166°
2026-05-08 07:41 16.30731 54.60964 31896 ft 522 kts 166°
2026-05-08 07:42 16.23682 54.62829 31900 ft 523 kts 166°
2026-05-08 07:42 16.16675 54.64682 31901 ft 522 kts 166°
2026-05-08 07:43 16.09626 54.66545 31903 ft 523 kts 166°
2026-05-08 07:43 16.02584 54.68403 31903 ft 521 kts 166°
2026-05-08 07:44 15.95545 54.70260 31904 ft 523 kts 166°
2026-05-08 07:44 15.88498 54.72118 31906 ft 523 kts 166°
2026-05-08 07:45 15.81437 54.73978 31909 ft 523 kts 166°
2026-05-08 07:45 15.74381 54.75836 31911 ft 523 kts 166°
2026-05-08 07:46 15.67316 54.77695 31912 ft 523 kts 166°
2026-05-08 07:46 15.60256 54.79550 31910 ft 524 kts 166°
2026-05-08 07:47 15.53193 54.81406 31909 ft 524 kts 166°
2026-05-08 07:47 15.46168 54.83250 31912 ft 524 kts 166°
2026-05-08 07:48 15.39094 54.85106 31911 ft 524 kts 166°
2026-05-08 07:48 15.32026 54.86958 31911 ft 524 kts 166°
2026-05-08 07:49 15.24962 54.88809 31910 ft 523 kts 166°
2026-05-08 07:49 15.17896 54.90658 31911 ft 524 kts 166°
2026-05-08 07:50 15.10828 54.92507 31912 ft 524 kts 166°
2026-05-08 07:50 15.03753 54.94356 31912 ft 525 kts 166°
2026-05-08 07:51 14.96678 54.96205 31912 ft 524 kts 166°
2026-05-08 07:51 14.90797 54.97740 31912 ft 524 kts 166°
2026-05-08 07:52 14.83730 54.99584 31914 ft 524 kts 166°
2026-05-08 07:52 14.76657 55.01428 31913 ft 525 kts 166°
2026-05-08 07:53 14.69564 55.03276 31911 ft 526 kts 166°
2026-05-08 07:53 14.62476 55.05121 31911 ft 525 kts 166°
2026-05-08 07:54 14.55390 55.06965 31911 ft 525 kts 166°
2026-05-08 07:54 14.48304 55.08808 31912 ft 525 kts 166°
2026-05-08 07:55 14.41214 55.10650 31912 ft 525 kts 166°
2026-05-08 07:55 14.34129 55.12490 31914 ft 525 kts 166°
2026-05-08 07:56 14.27040 55.14330 31912 ft 525 kts 166°
2026-05-08 07:56 14.19953 55.16168 31910 ft 525 kts 166°
2026-05-08 07:57 14.12879 55.18001 31911 ft 525 kts 166°
2026-05-08 07:57 14.05798 55.19836 31912 ft 524 kts 166°
2026-05-08 07:58 13.98719 55.21668 31912 ft 524 kts 166°
2026-05-08 07:58 13.91592 55.23235 31911 ft 524 kts 174°
2026-05-08 07:59 13.84355 55.23189 31911 ft 524 kts 185°
2026-05-08 07:59 13.77110 55.22326 31912 ft 524 kts 187°
2026-05-08 08:00 13.69884 55.21314 31911 ft 524 kts 187°
2026-05-08 08:00 13.62653 55.20347 31913 ft 524 kts 187°
2026-05-08 08:01 13.55414 55.19424 31914 ft 524 kts 186°
2026-05-08 08:01 13.48182 55.18518 31911 ft 524 kts 186°
2026-05-08 08:02 13.40946 55.17611 31910 ft 523 kts 186°
2026-05-08 08:02 13.33714 55.16704 31911 ft 524 kts 186°
2026-05-08 08:03 13.26478 55.15795 31914 ft 523 kts 186°
2026-05-08 08:03 13.19248 55.14888 31915 ft 524 kts 186°
2026-05-08 08:04 13.12017 55.13981 31916 ft 523 kts 186°
2026-05-08 08:04 13.04787 55.13075 31916 ft 524 kts 186°
2026-05-08 08:05 12.97553 55.12169 31917 ft 523 kts 186°
2026-05-08 08:05 12.90324 55.11264 31918 ft 524 kts 186°
2026-05-08 08:06 12.83092 55.10359 31913 ft 523 kts 186°
2026-05-08 08:06 12.75867 55.09457 31914 ft 523 kts 186°
2026-05-08 08:07 12.68640 55.08553 31919 ft 523 kts 186°
2026-05-08 08:07 12.61413 55.07651 31919 ft 523 kts 186°
2026-05-08 08:08 12.54186 55.06749 31918 ft 523 kts 186°
2026-05-08 08:08 12.46966 55.05848 31917 ft 523 kts 186°
2026-05-08 08:09 12.39738 55.04947 31917 ft 523 kts 186°
2026-05-08 08:09 12.32510 55.04047 31914 ft 523 kts 186°
2026-05-08 08:10 12.25333 55.03153 31920 ft 523 kts 186°
2026-05-08 08:10 12.18112 55.02254 31919 ft 523 kts 186°
2026-05-08 08:11 12.10882 55.01354 31918 ft 523 kts 186°
2026-05-08 08:11 12.03658 55.00456 31917 ft 523 kts 186°
2026-05-08 08:12 11.96402 55.00010 31916 ft 522 kts 180°
2026-05-08 08:12 11.89127 54.99963 31916 ft 523 kts 179°
2026-05-08 08:13 11.81852 54.99980 31916 ft 523 kts 179°
2026-05-08 08:13 11.74577 54.99996 31918 ft 523 kts 179°
2026-05-08 08:14 11.67304 55.00001 31917 ft 523 kts 179°
2026-05-08 08:14 11.60032 55.00001 31913 ft 522 kts 179°
2026-05-08 08:15 11.52760 55.00000 31915 ft 523 kts 179°
2026-05-08 08:15 11.45488 55.00000 31914 ft 522 kts 179°
2026-05-08 08:16 11.38217 55.00000 31914 ft 523 kts 179°
2026-05-08 08:16 11.30939 55.00005 31914 ft 523 kts 179°
2026-05-08 08:17 11.23666 55.00003 31911 ft 523 kts 179°
2026-05-08 08:17 11.16388 55.00000 31910 ft 523 kts 179°
2026-05-08 08:18 11.09112 54.99999 31914 ft 523 kts 179°
2026-05-08 08:18 11.01831 55.00000 31915 ft 523 kts 179°
2026-05-08 08:19 10.94550 55.00000 31912 ft 523 kts 179°
2026-05-08 08:19 10.87270 55.00000 31907 ft 523 kts 179°
2026-05-08 08:20 10.79986 55.00000 31904 ft 523 kts 179°
2026-05-08 08:20 10.72756 55.00000 31908 ft 523 kts 179°
2026-05-08 08:21 10.65470 55.00000 31907 ft 523 kts 179°
2026-05-08 08:21 10.58189 55.00000 31908 ft 523 kts 179°
2026-05-08 08:22 10.50904 55.00000 31913 ft 523 kts 179°
2026-05-08 08:22 10.43618 55.00000 31907 ft 523 kts 179°
2026-05-08 08:23 10.36334 55.00000 31904 ft 524 kts 179°
2026-05-08 08:23 10.29048 55.00004 31907 ft 523 kts 179°
2026-05-08 08:24 10.21766 55.00004 31906 ft 524 kts 179°
2026-05-08 08:24 10.14472 55.00001 31905 ft 524 kts 179°
2026-05-08 08:25 10.07180 55.00000 31906 ft 524 kts 179°
2026-05-08 08:25 9.99883 54.99999 31905 ft 524 kts 179°
2026-05-08 08:26 9.92589 55.00000 31903 ft 524 kts 179°
2026-05-08 08:26 9.85295 54.99999 31904 ft 525 kts 179°
2026-05-08 08:27 9.77991 54.99999 31907 ft 525 kts 179°
2026-05-08 08:27 9.70685 54.99999 31905 ft 525 kts 179°
2026-05-08 08:28 9.63431 54.99999 31906 ft 525 kts 179°
2026-05-08 08:28 9.56075 54.99999 31904 ft 525 kts 179°
2026-05-08 08:29 9.48824 54.99999 31903 ft 525 kts 179°
2026-05-08 08:29 9.41469 54.99999 31902 ft 525 kts 179°
2026-05-08 08:30 9.34216 55.00000 31905 ft 525 kts 179°
2026-05-08 08:30 9.23263 55.00002 31905 ft 525 kts 179°
2026-05-08 08:31 9.15955 55.00004 31908 ft 525 kts 179°
2026-05-08 08:31 9.08650 55.00002 31907 ft 525 kts 179°
2026-05-08 08:32 9.01337 55.00000 31906 ft 525 kts 179°
2026-05-08 08:32 8.94032 54.99999 31908 ft 525 kts 179°
2026-05-08 08:33 8.86724 54.99999 31907 ft 525 kts 179°
2026-05-08 08:33 8.79420 54.99999 31907 ft 525 kts 179°
2026-05-08 08:34 8.72114 54.99999 31903 ft 525 kts 179°
2026-05-08 08:34 8.64811 54.99999 31907 ft 524 kts 179°
2026-05-08 08:35 8.57517 54.99999 31906 ft 524 kts 179°
2026-05-08 08:35 8.50222 54.99999 31907 ft 524 kts 179°
2026-05-08 08:36 8.42930 54.99999 31909 ft 524 kts 179°
2026-05-08 08:36 8.35638 54.99999 31908 ft 524 kts 179°
2026-05-08 08:37 8.28347 54.99999 31912 ft 524 kts 179°
2026-05-08 08:37 8.21060 54.99999 31911 ft 524 kts 179°
2026-05-08 08:38 8.13775 55.00001 31909 ft 524 kts 179°
2026-05-08 08:38 8.07719 55.00001 31909 ft 524 kts 179°
2026-05-08 08:39 8.00432 55.00000 31909 ft 524 kts 179°
2026-05-08 08:39 7.93146 54.99999 31908 ft 524 kts 179°
2026-05-08 08:40 7.85859 54.99999 31909 ft 523 kts 179°
2026-05-08 08:40 7.78575 54.99999 31909 ft 523 kts 179°
2026-05-08 08:41 7.71342 54.99999 31911 ft 523 kts 179°
2026-05-08 08:41 7.64067 54.99999 31909 ft 523 kts 179°
2026-05-08 08:42 7.56748 54.99999 31897 ft 523 kts 179°
2026-05-08 08:42 7.49518 54.99999 31901 ft 523 kts 179°
2026-05-08 08:43 7.42248 54.99999 31899 ft 522 kts 179°
2026-05-08 08:43 7.34984 55.00000 31895 ft 522 kts 179°
2026-05-08 08:44 7.27720 55.00000 31899 ft 522 kts 179°
2026-05-08 08:44 7.20459 55.00000 31909 ft 522 kts 179°
2026-05-08 08:45 7.13198 55.00000 31909 ft 522 kts 179°
2026-05-08 08:45 7.05936 55.00000 31909 ft 522 kts 179°
2026-05-08 08:46 6.98672 55.00000 31903 ft 522 kts 179°
2026-05-08 08:46 6.91409 55.00000 31907 ft 522 kts 179°
2026-05-08 08:47 6.84149 55.00000 31908 ft 522 kts 179°
2026-05-08 08:47 6.76883 55.00005 31914 ft 522 kts 179°
2026-05-08 08:48 6.69612 55.00003 31910 ft 522 kts 179°
2026-05-08 08:48 6.62346 55.00001 31894 ft 522 kts 179°
2026-05-08 08:49 6.55126 55.00000 31898 ft 522 kts 179°
2026-05-08 08:49 6.47855 55.00000 31907 ft 522 kts 179°
2026-05-08 08:50 6.40586 55.00000 31904 ft 522 kts 179°
2026-05-08 08:50 6.33318 55.00000 31910 ft 522 kts 179°
2026-05-08 08:51 6.26051 55.00000 31897 ft 522 kts 179°
2026-05-08 08:51 6.18784 55.00000 31910 ft 522 kts 179°
2026-05-08 08:52 6.11523 55.00000 31903 ft 522 kts 179°
2026-05-08 08:52 6.04262 55.00000 31896 ft 522 kts 179°
2026-05-08 08:53 5.97002 55.00000 31907 ft 522 kts 179°
2026-05-08 08:53 5.89743 55.00000 31904 ft 522 kts 179°
2026-05-08 08:54 5.82484 55.00000 31907 ft 522 kts 179°
2026-05-08 08:54 5.75227 55.00000 31902 ft 522 kts 179°
2026-05-08 08:55 5.67970 55.00000 31899 ft 521 kts 179°
2026-05-08 08:55 5.60713 55.00000 31901 ft 521 kts 178°
2026-05-08 08:56 5.53452 55.00000 31899 ft 522 kts 178°
2026-05-08 08:56 5.46185 55.00000 31904 ft 522 kts 178°
2026-05-08 08:57 5.38922 55.00002 31902 ft 522 kts 178°
2026-05-08 08:57 5.31675 55.00379 31906 ft 521 kts 174°
2026-05-08 08:58 5.24452 55.01028 31898 ft 521 kts 173°
2026-05-08 08:58 5.17226 55.01639 31907 ft 521 kts 174°
2026-05-08 08:59 5.09997 55.02190 31904 ft 521 kts 174°
2026-05-08 08:59 5.02769 55.02718 31900 ft 521 kts 174°
2026-05-08 09:00 4.95586 55.03240 31902 ft 521 kts 174°
2026-05-08 09:00 4.88344 55.03770 31902 ft 522 kts 174°
2026-05-08 09:01 4.81102 55.04300 31901 ft 522 kts 174°
2026-05-08 09:01 4.73858 55.04831 31899 ft 522 kts 174°
2026-05-08 09:02 4.66613 55.05362 31906 ft 522 kts 174°
2026-05-08 09:02 4.59370 55.05893 31912 ft 522 kts 174°
2026-05-08 09:03 4.52129 55.06423 31912 ft 522 kts 174°
2026-05-08 09:03 4.44884 55.06953 31912 ft 522 kts 174°
2026-05-08 09:04 4.37641 55.07483 31903 ft 522 kts 174°
2026-05-08 09:04 4.30400 55.08013 31899 ft 522 kts 174°
2026-05-08 09:05 4.23157 55.08543 31910 ft 522 kts 174°
2026-05-08 09:05 4.15913 55.09073 31901 ft 522 kts 174°
2026-05-08 09:06 4.08673 55.09603 31906 ft 522 kts 174°
2026-05-08 09:06 4.01422 55.10139 31905 ft 522 kts 174°
2026-05-08 09:07 3.94174 55.10667 31902 ft 522 kts 175°
2026-05-08 09:07 3.86924 55.11195 31912 ft 522 kts 175°
2026-05-08 09:08 3.79673 55.11725 31907 ft 522 kts 175°
2026-05-08 09:08 3.72420 55.12256 31902 ft 523 kts 175°
2026-05-08 09:09 3.65164 55.12787 31901 ft 523 kts 175°
2026-05-08 09:09 3.57909 55.13317 31906 ft 523 kts 175°
2026-05-08 09:10 3.50652 55.13848 31905 ft 523 kts 175°
2026-05-08 09:10 3.43396 55.14378 31909 ft 523 kts 175°
2026-05-08 09:11 3.36140 55.14908 31900 ft 523 kts 175°
2026-05-08 09:11 3.28883 55.15439 31902 ft 523 kts 175°
2026-05-08 09:12 3.21627 55.15969 31906 ft 523 kts 175°
2026-05-08 09:12 3.14370 55.16499 31905 ft 523 kts 175°
2026-05-08 09:13 3.07156 55.17027 31899 ft 523 kts 175°
2026-05-08 09:13 2.99895 55.17557 31904 ft 523 kts 175°
2026-05-08 09:14 2.92630 55.18087 31901 ft 523 kts 175°
2026-05-08 09:14 2.85368 55.18617 31909 ft 523 kts 175°